Location: Bretagne
(43.8474°N, 0.4650°W)
Time: 22:42:08
(UTC+00:00)

Cosmos 909 Rocket - Visible Passes

Search period start: 18 April 2026 00:00
Search period end: 28 April 2026 00:00
Orbit: 991 x 2088 km, 65.9° (Epoch: 18 April)

Date Brightness Start Highest point End Pass type
(mag) Time Alt. Az. Time Alt. Az. Time Alt. Az.
18 Apr 6.1 00:13:54 16° E 00:13:54 16° E 00:15:54 10° ENE visible
18 Apr 3.9 02:10:47 68° W 02:11:21 72° NW 02:17:41 10° NNE visible
18 Apr 5.9 04:08:49 10° WNW 04:13:00 18° NNW 04:17:16 10° NNE visible
19 Apr 4.0 01:33:24 75° E 01:33:24 75° E 01:39:20 10° NE visible
19 Apr 5.6 03:30:17 14° W 03:34:06 23° NW 03:39:08 10° NNE visible
20 Apr 4.7 00:56:00 46° E 00:56:00 46° E 01:00:52 10° NE visible
20 Apr 5.2 02:52:52 24° W 02:55:22 31° NW 03:00:59 10° NNE visible
21 Apr 5.4 00:18:33 29° ENE 00:18:33 29° ENE 00:22:13 10° NE visible
21 Apr 4.7 02:15:27 38° WNW 02:16:45 42° NW 02:22:47 10° NNE visible
21 Apr 6.2 04:16:21 10° NW 04:19:15 13° NNW 04:22:13 10° N visible
21 Apr 5.9 23:41:06 18° ENE 23:41:06 18° ENE 23:43:15 10° ENE visible
22 Apr 4.2 01:37:59 60° WNW 01:38:15 60° NW 01:44:32 10° NNE visible
22 Apr 6.1 03:36:24 10° WNW 03:40:11 16° NNW 03:44:04 10° NNE visible
23 Apr 4.1 01:00:29 74° NNE 01:00:29 74° NNE 01:06:13 10° NNE visible
23 Apr 5.8 02:57:21 12° WNW 03:01:14 20° NNW 03:05:56 10° NNE visible
24 Apr 4.6 00:22:59 51° ENE 00:22:59 51° ENE 00:27:49 10° NE visible
24 Apr 5.5 02:19:51 21° WNW 02:22:24 27° NW 02:27:47 10° NNE visible
24 Apr 6.5 04:24:01 10° NNW 04:25:43 11° N 04:27:27 10° N visible
24 Apr 5.1 23:45:25 33° ENE 23:45:25 33° ENE 23:49:15 10° NE visible
25 Apr 5.0 01:42:18 32° WNW 01:43:44 36° NW 01:49:36 10° NNE visible
25 Apr 6.4 03:44:01 10° NW 03:46:31 12° NNW 03:49:06 10° N visible
25 Apr 5.7 23:07:51 21° ENE 23:07:51 21° ENE 23:10:28 10° NE visible
26 Apr 4.5 01:04:43 50° WNW 01:05:11 51° NW 01:11:23 10° NNE visible
26 Apr 6.2 03:04:02 10° NW 03:07:24 15° NNW 03:10:53 10° N visible
26 Apr 6.1 22:30:14 13° ENE 22:30:14 13° ENE 22:31:15 10° ENE visible
27 Apr 4.1 00:27:06 71° NNW 00:27:06 71° NNW 00:33:06 10° NNE visible
27 Apr 6.1 02:24:11 10° WNW 02:28:23 18° NNW 02:32:44 10° NNE visible
27 Apr 4.2 23:49:27 63° NE 23:49:27 63° NE 23:54:44 10° NE visible
